Medford, OR

6:54 AM PDT on October 19, 2017 (GMT -0700)
Rogue Valley International-Medford

Weather History for KMFR - July, 2013

Change the Weather History Date:

Tuesday, July 16, 2013

  Actual Average Record
Temperature  
Mean Temperature 80 °F 74 °F  
Max Temperature 95 °F 91 °F 110 °F (1911)
Min Temperature 65 °F 58 °F 42 °F (1993)
Degree Days  
Heating Degree Days 0 0  
Month to date heating degree days 0 1  
Since 1 June heating degree days 35 55  
Since 1 July heating degree days 0 1  
Cooling Degree Days 15 10  
Month to date cooling degree days 218 129  
Year to date cooling degree days 399 275  
Since 1 June cooling degree days 364 237  
Growing Degree Days 30 (Base 50)    
Moisture  
Dew Point 42 °F    
Average Humidity 36    
Maximum Humidity 56    
Minimum Humidity 16    
Precipitation  
Precipitation 0.00 in 0.01 in 0.88 in (1916)
Month to date precipitation 0.00 0.16  
Year to date precipitation 4.13 9.62  
Snow  
Snow 0.00 in 0.00 in - ()
Month to date snowfall 0.0 0.0  
Since 1 July snowfall 0.0 0.0  
Snow Depth 0.00 in    
Sea Level Pressure  
Sea Level Pressure 29.80 in    
Wind  
Wind Speed 6 mph (NW)    
Max Wind Speed 21 mph    
Max Gust Speed 28 mph    
Visibility 10 miles    
Events      
T = Trace of Precipitation, MM = Missing Value Source: NWS Daily Summary

Daily Weather History Graph

Daily Weather History Graph

Search for Another Location

Airport or City:

Trip Planner

Search our weather history database for the weather conditions in past years. The results will help you decide how hot, cold, wet, or windy it might be!

Date:

Astronomy

Jul. 16, 2013 Rise Set
Actual Time 5:49 AM PDT 8:45 PM PDT
Civil Twilight 5:15 AM PDT 9:18 PM PDT
Nautical Twilight 4:33 AM PDT 10:01 PM PDT
Astronomical Twilight 3:43 AM PDT 10:50 PM PDT
Moon 2:30 PM PDT (7/16) 12:25 AM PDT (7/16)
Length of Visible Light 16h 03m
Length of Day
14h 56m
First Quarter, 57% of the Moon is Illuminated
Jul 16
First Quarter
Jul 22
Full
Jul 29
Last Quarter
Aug 6
New
Aug 14
First Quarter

Hourly Weather History & Observations

Time (PDT) Temp. Dew Point Humidity Pressure Visibility Wind Dir Wind Speed Gust Speed Precip Events Conditions
12:53 AM 78.1 °F 42.1 °F 28% 29.76 in 10.0 mi NNW 3.5 mph - N/A   Clear
1:53 AM 73.0 °F 45.0 °F 37% 29.76 in 10.0 mi Calm Calm - N/A   Clear
2:53 AM 69.1 °F 44.1 °F 40% 29.75 in 10.0 mi Calm Calm - N/A   Clear
3:53 AM 70.0 °F 46.0 °F 42% 29.75 in 10.0 mi Calm Calm - N/A   Partly Cloudy
4:53 AM 68.0 °F 46.0 °F 45% 29.75 in 10.0 mi ENE 3.5 mph - N/A   Clear
5:53 AM 64.9 °F 48.0 °F 54% 29.78 in 10.0 mi SE 3.5 mph - N/A   Partly Cloudy
6:53 AM 66.9 °F 46.9 °F 49% 29.77 in 10.0 mi East 3.5 mph - N/A   Clear
7:53 AM 68.0 °F 48.0 °F 49% 29.78 in 10.0 mi Calm Calm - N/A   Partly Cloudy
8:53 AM 70.0 °F 48.0 °F 46% 29.81 in 10.0 mi Calm Calm - N/A   Clear
9:53 AM 73.9 °F 46.9 °F 38% 29.81 in 10.0 mi Calm Calm - N/A   Scattered Clouds
10:53 AM 77.0 °F 46.9 °F 34% 29.80 in 10.0 mi NNW 4.6 mph - N/A   Clear
11:53 AM 82.0 °F 46.9 °F 29% 29.79 in 10.0 mi NNW 4.6 mph - N/A   Scattered Clouds
12:53 PM 87.1 °F 46.0 °F 24% 29.78 in 10.0 mi Variable 4.6 mph - N/A   Scattered Clouds
1:53 PM 90.0 °F 41.0 °F 18% 29.77 in 10.0 mi Variable 6.9 mph - N/A   Scattered Clouds
2:53 PM 91.9 °F 43.0 °F 18% 29.76 in 10.0 mi WNW 9.2 mph - N/A   Clear
3:53 PM 95.0 °F 43.0 °F 17% 29.75 in 10.0 mi West 15.0 mph - N/A   Scattered Clouds
4:53 PM 91.9 °F 43.0 °F 18% 29.76 in 10.0 mi WNW 19.6 mph 26.5 mph N/A   Clear
5:53 PM 91.0 °F 39.9 °F 17% 29.77 in 10.0 mi WNW 17.3 mph 25.3 mph N/A   Clear
6:53 PM 88.0 °F 37.9 °F 17% 29.81 in 10.0 mi West 16.1 mph 23.0 mph N/A   Clear
7:53 PM 84.9 °F 34.0 °F 16% 29.85 in 10.0 mi NW 9.2 mph - N/A   Clear
8:53 PM 80.1 °F 35.1 °F 20% 29.88 in 10.0 mi NNW 4.6 mph - N/A   Clear
9:53 PM 78.1 °F 35.1 °F 21% 29.92 in 10.0 mi NW 9.2 mph - N/A   Clear
10:53 PM 75.9 °F 32.0 °F 20% 29.95 in 10.0 mi WNW 5.8 mph - N/A   Clear
11:53 PM 72.0 °F 34.0 °F 25% 29.97 in 10.0 mi Calm Calm - N/A   Clear